sat.trackr.live / text

‹ back to catalog

STARLINK-11157 [DTC]

NORAD 60122 · 2024-118K

PAYLOAD ACTIVE UNKNOWN

§ Identity

Operator
Country
US
Launch date
2024-06-24
Launch site
AFWTR
Launch vehicle
Mass (kg)
RCS (m²)

Purposes: comms

External: N2YO · Heavens-Above · Gunter

§ Orbital elements

Epoch: 2026-05-24T21:17:25.762272Z

Period
91.74 min
Inclination
53.1595°
Eccentricity
0.0000940
Mean motion
15.69705959 rev/d
Perigee alt
359.1 km
Apogee alt
360.4 km
Semi-major
6,737.9 km
B*
-2.0757e-6
RAAN
205.4382°
Arg perigee
73.8983°
Mean anomaly
286.2139°
Rev number
10,996

§ Raw data

STARLINK-11157 [DTC]1 60122U 24118K   26144.88710373 -.00000840  00000+0 -20757-5 0  99902 60122  53.1595 205.4382 0000940  73.8983 286.2139 15.69705959109968

JSON: /api/v1/satellites/60122 · /tle

For live sub-satellite position, see the globe view (requires WebGL).

§ Visibility from observer

Set your observer location to see the next 7 days of passes ≥ 10°. The values pass through the URL so the page stays shareable.

No JS? Fill the form by hand. The geolocation button needs JavaScript.